SKCUBE (42789 NORAD) Tracking and Keplerian Element Data

This shows tracking and keplerian element data for the satellite.

Feedback or suggestion? Click here.




ElementValue
Catalog42789
NameSKCUBE
Epoch Orbit7723
Epoch Day317.56876015
Epoch Year2018
RAAN14.9238
Inclination97.3833
Eccentricity0.0010012
Argument of Perigee272.6712
Mean Anonmoly87.3378
Mean Motion15.22268162
Decay Rate1.304E-05
L11 42789U 17036AA 18317.56876015 .00001304 00000-0 59638-4 0 9998
L22 42789 97.3833 14.9238 0010012 272.6712 87.3378 15.22268162 77233

Live tracking and technical data element details for SKCUBE (NORAD 42789). SKCUBE can be tracked NOW for your location showing map with azimuth and elevation plus other details from your city location.

Track the satellite on the map from your city or location and see movement details for azimuth, elevation, latitude, longitude, range, height, and movement on the map or in text.







IsCatalogInMostPopularTable: catalog: 42789, numindb: 141
Update: records affected: 1



GetName: 42789 SKCUBE

Hit Count: updated at: Wed, 14 Nov 2018 15:36:03 GMT